Location: Kuffner-Sternwarte
(48.2130°N, 16.2960°E)
Time: 04:59:33
(UTC+02:00)

Envisat - Pass Details

Date: 26 September 2024
Orbit: 762 x 764 km, 98.3° (Epoch: 04 October)

Event Time Altitude Azimuth Distance (km) Brightness Sun altitude
Rises 04:09:47 0° 14° (NNE) 3,237 6.9 -26.0°
Reaches altitude 10° 04:12:06 10° 15° (NNE) 2,307 6.0 -25.6°
Maximum altitude 04:17:12 83° 105° (ESE) 774 2.9 -24.9°
Enters shadow 04:18:09 60° 183° (S) 875 3.0 -24.8°
